TimeMDT,TemperatureF,Dew PointF,Humidity,Sea Level PressureIn,VisibilityMPH,Wind Direction,Wind SpeedMPH,Gust SpeedMPH,PrecipitationIn,Events,Conditions,WindDirDegrees,DateUTC
12:53 AM,32.0,30.9,96,29.76,10.0,SSE,21.9,31.1,N/A,,Overcast,160,2013-03-17 06:53:00
1:28 AM,32.0,30.2,93,29.70,10.0,SSE,25.3,35.7,N/A,,Overcast,160,2013-03-17 07:28:00
1:53 AM,32.0,30.0,92,29.72,10.0,South,24.2,32.2,N/A,,Overcast,170,2013-03-17 07:53:00
2:53 AM,32.0,30.0,92,29.69,10.0,SSE,20.7,26.5,N/A,,Overcast,160,2013-03-17 08:53:00
3:24 AM,30.2,30.2,100,29.64,10.0,SSE,15.0,21.9,N/A,,Overcast,150,2013-03-17 09:24:00
3:53 AM,30.0,28.9,96,29.63,10.0,SSE,17.3,-,N/A,,Overcast,160,2013-03-17 09:53:00
4:53 AM,30.0,28.9,96,29.59,10.0,SSE,25.3,32.2,N/A,,Overcast,160,2013-03-17 10:53:00
5:53 AM,28.9,28.0,96,29.54,10.0,South,26.5,36.8,N/A,,Overcast,170,2013-03-17 11:53:00
6:53 AM,28.9,28.0,96,29.50,9.0,SSE,26.5,33.4,N/A,,Overcast,160,2013-03-17 12:53:00
7:53 AM,28.0,27.0,96,29.49,7.0,South,25.3,31.1,N/A,,Overcast,170,2013-03-17 13:53:00
8:46 AM,28.4,26.6,93,29.40,9.0,SSE,23.0,28.8,N/A,,Scattered Clouds,160,2013-03-17 14:46:00
8:53 AM,28.9,27.0,92,29.45,10.0,South,24.2,28.8,N/A,,Partly Cloudy,170,2013-03-17 14:53:00
9:53 AM,34.0,30.0,85,29.40,10.0,South,18.4,-,N/A,,Clear,170,2013-03-17 15:53:00
10:45 AM,51.8,28.4,41,29.34,10.0,WSW,23.0,32.2,N/A,,Clear,240,2013-03-17 16:45:00
10:53 AM,52.0,26.1,37,29.32,10.0,WSW,25.3,34.5,N/A,,Clear,250,2013-03-17 16:53:00
11:53 AM,43.0,30.9,62,29.41,10.0,NW,33.4,41.4,N/A,,Scattered Clouds,310,2013-03-17 17:53:00
12:04 PM,42.8,30.2,61,29.40,10.0,WNW,34.5,41.4,N/A,,Mostly Cloudy,300,2013-03-17 18:04:00
12:53 PM,37.9,28.9,70,29.49,10.0,WNW,27.6,42.6,N/A,,Overcast,300,2013-03-17 18:53:00
1:48 PM,37.4,30.2,75,29.45,10.0,NW,21.9,35.7,N/A,,Overcast,320,2013-03-17 19:48:00
1:53 PM,37.9,30.0,73,29.49,6.0,NW,27.6,33.4,0.00,Snow,Light Snow,320,2013-03-17 19:53:00
2:02 PM,35.6,30.2,81,29.46,1.8,NW,25.3,34.5,0.00,Snow,Light Snow,310,2013-03-17 20:02:00
2:10 PM,35.6,30.2,81,29.46,2.5,NW,27.6,36.8,0.00,Snow,Light Snow,320,2013-03-17 20:10:00
2:17 PM,35.6,28.4,75,29.46,4.0,NW,29.9,40.3,0.00,Snow,Light Snow,310,2013-03-17 20:17:00
2:36 PM,33.8,26.6,75,29.48,2.5,NW,27.6,43.7,0.00,Snow,Light Snow,310,2013-03-17 20:36:00
2:48 PM,30.2,26.6,86,29.49,1.5,NW,34.5,42.6,0.00,Snow,Light Snow,310,2013-03-17 20:48:00
2:53 PM,30.9,27.0,85,29.55,1.0,NW,33.4,47.2,0.00,Snow,Light Snow,310,2013-03-17 20:53:00
3:02 PM,30.2,26.6,86,29.51,0.8,NW,38.0,50.6,0.00,Snow,Light Snow,310,2013-03-17 21:02:00
3:15 PM,30.2,26.6,86,29.50,0.5,NW,31.1,46.0,0.00,Fog-Snow,Snow,310,2013-03-17 21:15:00
3:39 PM,28.4,26.6,93,29.53,-9999.0,North,-9999.0,-,0.00,,Unknown,0,2013-03-17 21:39:00
3:53 PM,30.0,26.1,85,29.61,0.8,NW,32.2,43.7,0.00,Snow,Light Snow,310,2013-03-17 21:53:00
4:03 PM,30.2,24.8,80,29.55,1.5,NW,33.4,43.7,0.00,Snow,Light Snow,310,2013-03-17 22:03:00
4:08 PM,30.2,24.8,80,29.54,3.0,NW,26.5,43.7,0.00,,Unknown,320,2013-03-17 22:08:00
4:17 PM,30.2,24.8,80,29.56,7.0,NW,33.4,42.6,0.01,,Overcast,320,2013-03-17 22:17:00
4:23 PM,30.2,24.8,80,29.56,1.5,NW,34.5,43.7,0.01,Snow,Light Snow,320,2013-03-17 22:23:00
4:36 PM,30.2,26.6,86,29.57,3.0,NNW,23.0,39.1,0.01,Snow,Light Snow,330,2013-03-17 22:36:00
4:53 PM,30.9,25.0,79,29.64,10.0,NNW,27.6,39.1,0.01,,Overcast,330,2013-03-17 22:53:00
5:53 PM,30.0,24.1,79,29.70,10.0,NW,24.2,31.1,N/A,,Overcast,320,2013-03-17 23:53:00
6:02 PM,28.4,24.8,86,29.63,1.8,NNW,21.9,31.1,0.00,Snow,Light Snow,340,2013-03-18 00:02:00
6:06 PM,28.4,26.6,93,29.63,1.2,NNW,20.7,29.9,0.00,Snow,Light Snow,340,2013-03-18 00:06:00
6:17 PM,28.4,26.6,93,29.64,3.0,NNW,17.3,-,0.00,Snow,Light Snow,330,2013-03-18 00:17:00
6:53 PM,28.9,25.0,85,29.75,10.0,NNW,17.3,-,0.00,,Overcast,330,2013-03-18 00:53:00
7:01 PM,28.4,24.8,86,29.68,10.0,NNW,17.3,24.2,N/A,,Overcast,330,2013-03-18 01:01:00
7:11 PM,28.4,24.8,86,29.67,10.0,NNW,18.4,23.0,N/A,,Overcast,330,2013-03-18 01:11:00
7:53 PM,28.0,24.1,85,29.79,10.0,NW,10.4,-,N/A,,Overcast,310,2013-03-18 01:53:00
8:53 PM,27.0,21.9,81,29.81,10.0,NW,10.4,-,N/A,,Mostly Cloudy,310,2013-03-18 02:53:00
9:53 PM,26.1,23.0,88,29.83,10.0,NW,12.7,-,0.00,,Overcast,310,2013-03-18 03:53:00
10:00 PM,26.6,23.0,86,29.76,10.0,WNW,10.4,-,N/A,,Overcast,300,2013-03-18 04:00:00
10:21 PM,26.6,21.2,80,29.77,2.0,WNW,15.0,-,0.00,Snow,Light Snow,300,2013-03-18 04:21:00
10:30 PM,24.8,21.2,86,29.78,1.2,NW,17.3,24.2,0.00,Snow,Light Snow,310,2013-03-18 04:30:00
10:44 PM,24.8,21.2,86,29.78,3.0,NW,10.4,-,0.00,Snow,Light Snow,310,2013-03-18 04:44:00
10:53 PM,23.0,21.0,92,29.82,8.0,WNW,12.7,-,0.00,,Mostly Cloudy,300,2013-03-18 04:53:00
11:23 PM,23.0,19.4,86,29.79,10.0,WNW,13.8,-,N/A,,Mostly Cloudy,300,2013-03-18 05:23:00
11:45 PM,19.4,17.6,93,29.79,10.0,WNW,9.2,-,N/A,,Scattered Clouds,290,2013-03-18 05:45:00
11:53 PM,19.9,17.1,89,29.86,10.0,WNW,8.1,-,N/A,,Partly Cloudy,300,2013-03-18 05:53:00